Terminal Aerodrome Forecast
Issued by NWS

Home | Current Version | Previous Version | Graphics & Text | Print | Product List | Glossary On
Versions: 1 2 3 4 5 6 7 8 9 10 11 12 13 14 15 16 17 18
000
FTUS43 KMPX 201308 AAA
TAFAXN
TAF AMD
KAXN 201308Z 2013/2112 14009KT P6SM BKN004
      TEMPO 2013/2015 1 1/2SM BR OVC002
     FM201500 15010KT P6SM SCT004 BKN250
     FM201800 16011G17KT P6SM SCT250
     FM210200 15006KT P6SM FEW250=

USA.gov is the U.S. government's official web portal to all federal, state and local government web resources and services.